| time (UTC) | temp F | wind direction | speed MPH | gust MPH | rain 1hr in | rain 24hr in | rain mn in | humidity % | barometer mb |
| 20260507114048 | 67 | 128 | 1.0 | 2.0 | 0.00 | 0.00 | 0.00 | 100 | 1025.8 |
| 20260507113552 | 66 | 128 | 1.0 | 2.0 | 0.00 | 0.00 | 0.00 | 100 | 1026.0 |
| 20260507113052 | 66 | 128 | 1.0 | 2.0 | 0.00 | 0.00 | 0.00 | 100 | 1026.0 |
| 20260507112549 | 67 | 128 | 1.0 | 2.0 | 0.00 | 0.00 | 0.00 | 100 | 1025.9 |
| 20260507112051 | 67 | 128 | 1.0 | 2.0 | 0.00 | 0.00 | 0.00 | 100 | 1026.1 |
| 20260507111555 | 67 | 128 | 1.0 | 2.0 | 0.00 | 0.00 | 0.00 | 100 | 1026.1 |
| 20260507111049 | 67 | 128 | 1.0 | 2.0 | 0.00 | 0.00 | 0.00 | 100 | 1026.2 |
| 20260507110549 | 67 | 128 | 1.0 | 2.0 | 0.00 | 0.00 | 0.00 | 100 | 1026.2 |
| 20260507105548 | 67 | 128 | 1.0 | 2.0 | 0.00 | 0.00 | 0.00 | 100 | 1026.2 |
| 20260507105049 | 67 | 128 | 1.0 | 2.0 | 0.00 | 0.00 | 0.00 | 100 | 1026.2 |
| 20260507104600 | 67 | 128 | 1.0 | 2.0 | 0.00 | 0.00 | 0.00 | 100 | 1026.2 |
| 20260507104053 | 68 | 128 | 1.0 | 2.0 | 0.00 | 0.00 | 0.00 | 100 | 1026.3 |
| 20260507103549 | 68 | 128 | 1.0 | 2.0 | 0.00 | 0.00 | 0.00 | 100 | 1026.2 |
| 20260507103128 | 68 | 128 | 1.0 | 2.0 | 0.00 | 0.00 | 0.00 | 100 | 1026.2 |
| 20260507102548 | 68 | 128 | 1.0 | 2.0 | 0.00 | 0.00 | 0.00 | 100 | 1026.3 |
| 20260507102049 | 68 | 128 | 1.0 | 3.0 | 0.00 | 0.00 | 0.00 | 100 | 1026.3 |
| 20260507101551 | 68 | 128 | 1.0 | 3.0 | 0.00 | 0.00 | 0.00 | 100 | 1026.4 |
| 20260507101048 | 68 | 128 | 1.0 | 3.0 | 0.00 | 0.00 | 0.00 | 100 | 1026.3 |
| 20260507100551 | 68 | 128 | 1.0 | 4.0 | 0.00 | 0.00 | 0.00 | 100 | 1026.3 |
| 20260507100106 | 68 | 128 | 1.0 | 4.0 | 0.00 | 0.00 | 0.00 | 100 | 1026.4 |
| 20260507095548 | 68 | 128 | 2.0 | 4.0 | 0.00 | 0.00 | 0.00 | 100 | 1026.5 |
| 20260507095048 | 68 | 127 | 1.0 | 3.0 | 0.00 | 0.00 | 0.00 | 100 | 1026.5 |
| 20260507094550 | 69 | 126 | 1.0 | 3.0 | 0.00 | 0.00 | 0.00 | 100 | 1026.5 |
| 20260507094049 | 69 | 126 | 1.0 | 2.0 | 0.00 | 0.00 | 0.00 | 100 | 1026.5 |
| 20260507093549 | 69 | 126 | 1.0 | 4.0 | 0.00 | 0.00 | 0.00 | 100 | 1026.5 |
| 20260507093052 | 69 | 126 | 1.0 | 4.0 | 0.00 | 0.00 | 0.00 | 100 | 1026.5 |
| 20260507092549 | 69 | 119 | 1.0 | 3.0 | 0.00 | 0.00 | 0.00 | 100 | 1026.6 |
| 20260507092048 | 69 | 117 | 1.0 | 3.0 | 0.00 | 0.00 | 0.00 | 100 | 1026.6 |
| 20260507091554 | 69 | 108 | 1.0 | 3.0 | 0.00 | 0.00 | 0.00 | 100 | 1026.7 |
| 20260507091049 | 69 | 108 | 1.0 | 3.0 | 0.00 | 0.00 | 0.00 | 100 | 1026.6 |
| 20260507090552 | 69 | 107 | 1.0 | 3.0 | 0.00 | 0.00 | 0.00 | 100 | 1026.7 |
| 20260507090057 | 69 | 104 | 1.0 | 3.0 | 0.00 | 0.00 | 0.00 | 100 | 1026.7 |
| 20260507085550 | 69 | 97 | 1.0 | 2.0 | 0.00 | 0.00 | 0.00 | 100 | 1026.7 |
| 20260507085053 | 69 | 97 | 1.0 | 3.0 | 0.00 | 0.00 | 0.00 | 100 | 1026.9 |
| 20260507084604 | 69 | 96 | 1.0 | 3.0 | 0.00 | 0.00 | 0.00 | 100 | 1026.9 |
| 20260507084048 | 69 | 96 | 1.0 | 3.0 | 0.00 | 0.00 | 0.00 | 100 | 1027.0 |
| 20260507083548 | 69 | 96 | 1.0 | 3.0 | 0.00 | 0.00 | 0.00 | 100 | 1026.9 |
| 20260507083053 | 69 | 76 | 0.0 | 2.0 | 0.00 | 0.00 | 0.00 | 100 | 1026.9 |
| 20260507082552 | 69 | 76 | 1.0 | 2.0 | 0.00 | 0.00 | 0.00 | 100 | 1026.9 |
| 20260507082051 | 69 | 76 | 1.0 | 2.0 | 0.00 | 0.00 | 0.00 | 100 | 1026.8 |
| 20260507081558 | 70 | 76 | 1.0 | 2.0 | 0.00 | 0.00 | 0.00 | 100 | 1026.8 |
| 20260507081051 | 70 | 76 | 1.0 | 2.0 | 0.00 | 0.00 | 0.00 | 100 | 1026.7 |
| 20260507080551 | 70 | 76 | 0.0 | 3.0 | 0.00 | 0.00 | 0.00 | 100 | 1026.7 |
| 20260507080056 | 70 | 76 | 1.0 | 3.0 | 0.00 | 0.00 | 0.00 | 100 | 1026.7 |
| 20260507075551 | 70 | 76 | 1.0 | 3.0 | 0.00 | 0.00 | 0.00 | 100 | 1026.8 |
| 20260507075051 | 70 | 59 | 1.0 | 2.0 | 0.00 | 0.00 | 0.00 | 100 | 1026.7 |
| 20260507074600 | 71 | 59 | 1.0 | 2.0 | 0.00 | 0.00 | 0.00 | 100 | 1026.6 |
| 20260507074050 | 71 | 59 | 1.0 | 2.0 | 0.00 | 0.00 | 0.00 | 100 | 1026.6 |
| 20260507073551 | 71 | 59 | 0.0 | 2.0 | 0.00 | 0.00 | 0.00 | 100 | 1026.6 |
| 20260507073054 | 71 | 59 | 0.0 | 2.0 | 0.00 | 0.00 | 0.00 | 100 | 1026.5 |
| 20260507072551 | 71 | 59 | 0.0 | 0.0 | 0.00 | 0.00 | 0.00 | 100 | 1026.4 |
| 20260507072053 | 71 | 0 | 0.0 | 0.0 | 0.00 | 0.00 | 0.00 | 100 | 1026.4 |
| 20260507071605 | 71 | 0 | 0.0 | 0.0 | 0.00 | 0.00 | 0.00 | 100 | 1026.3 |
| 20260507071051 | 71 | 0 | 0.0 | 0.0 | 0.00 | 0.00 | 0.00 | 100 | 1026.2 |
| 20260507070551 | 71 | 0 | 0.0 | 0.0 | 0.00 | 0.00 | 0.00 | 100 | 1026.1 |
| 20260507070106 | 71 | 0 | 0.0 | 0.0 | 0.00 | 0.00 | 0.00 | 100 | 1026.0 |
| 20260507065551 | 71 | 0 | 0.0 | 0.0 | 0.00 | 0.00 | 0.00 | 100 | 1025.9 |
| 20260507065054 | 71 | 0 | 0.0 | 0.0 | 0.00 | 0.00 | 0.00 | 100 | 1025.8 |
| 20260507064557 | 71 | 0 | 0.0 | 0.0 | 0.00 | 0.00 | 0.00 | 100 | 1025.8 |
| 20260507064051 | 71 | 0 | 0.0 | 0.0 | 0.00 | 0.00 | 0.00 | 100 | 1025.7 |
| 20260507063551 | 71 | 0 | 0.0 | 1.0 | 0.00 | 0.00 | 0.00 | 100 | 1025.7 |
| 20260507063057 | 72 | 0 | 0.0 | 2.0 | 0.00 | 0.00 | 0.00 | 100 | 1025.6 |
| 20260507062555 | 72 | 0 | 0.0 | 2.0 | 0.00 | 0.00 | 0.00 | 100 | 1025.5 |
| 20260507062051 | 72 | 59 | 0.0 | 2.0 | 0.00 | 0.00 | 0.00 | 100 | 1025.5 |
| 20260507061550 | 72 | 0 | 0.0 | 2.0 | 0.00 | 0.00 | 0.00 | 100 | 1025.4 |
| 20260507061052 | 72 | 0 | 0.0 | 2.0 | 0.00 | 0.00 | 0.00 | 100 | 1025.4 |
| 20260507060547 | 72 | 0 | 0.0 | 2.0 | 0.00 | 0.00 | 0.00 | 100 | 1025.3 |
| 20260507060058 | 73 | 0 | 0.0 | 2.0 | 0.00 | 0.00 | 0.00 | 100 | 1025.3 |
| 20260507055551 | 73 | 0 | 0.0 | 2.0 | 0.00 | 0.00 | 0.00 | 100 | 1025.2 |
| 20260507055051 | 73 | 57 | 0.0 | 2.0 | 0.00 | 0.00 | 0.00 | 100 | 1025.1 |
| 20260507054609 | 73 | 0 | 0.0 | 1.0 | 0.00 | 0.00 | 0.00 | 100 | 1025.1 |
| 20260507054048 | 74 | 0 | 0.0 | 1.0 | 0.00 | 0.00 | 0.00 | 100 | 1025.0 |
| 20260507053643 | 74 | 0 | 0.0 | 3.0 | 0.00 | 0.00 | 0.00 | 100 | 1024.9 |
| 20260507053107 | 74 | 57 | 0.0 | 3.0 | 0.00 | 0.00 | 0.00 | 100 | 1024.8 |
| 20260507052548 | 74 | 0 | 0.0 | 3.0 | 0.00 | 0.00 | 0.00 | 100 | 1024.7 |
| 20260507052051 | 74 | 0 | 0.0 | 5.0 | 0.00 | 0.00 | 0.00 | 100 | 1024.7 |
| 20260507051600 | 74 | 0 | 1.0 | 5.0 | 0.00 | 0.00 | 0.00 | 100 | 1024.6 |
| 20260507051047 | 74 | 0 | 0.0 | 4.0 | 0.00 | 0.00 | 0.00 | 100 | 1024.5 |
| 20260507050549 | 75 | 106 | 0.0 | 3.0 | 0.00 | 0.00 | 0.00 | 100 | 1024.5 |
| 20260507050058 | 75 | 0 | 0.0 | 0.0 | 0.00 | 0.00 | 0.00 | 100 | 1024.4 |
| 20260507045548 | 75 | 0 | 0.0 | 1.0 | 0.00 | 0.00 | 0.00 | 100 | 1024.4 |
| 20260507045051 | 75 | 0 | 0.0 | 3.0 | 0.00 | 0.00 | 0.00 | 100 | 1024.3 |
| 20260507044603 | 74 | 0 | 0.0 | 3.0 | 0.00 | 0.00 | 0.00 | 100 | 1024.3 |
| 20260507044048 | 75 | 35 | 1.0 | 3.0 | 0.00 | 0.00 | 0.00 | 100 | 1024.2 |
| 20260507043548 | 75 | 35 | 1.0 | 3.0 | 0.00 | 0.00 | 0.00 | 100 | 1024.2 |
| 20260507043054 | 75 | 35 | 0.0 | 3.0 | 0.00 | 0.00 | 0.00 | 100 | 1024.0 |
| 20260507042551 | 75 | 35 | 1.0 | 3.0 | 0.00 | 0.00 | 0.00 | 100 | 1024.1 |
| 20260507042051 | 75 | 0 | 0.0 | 3.0 | 0.00 | 0.00 | 0.00 | 100 | 1024.0 |
| 20260507041607 | 75 | 29 | 1.0 | 5.0 | 0.00 | 0.00 | 0.00 | 100 | 1023.9 |
| 20260507041052 | 75 | 29 | 2.0 | 5.0 | 0.00 | 0.00 | 0.00 | 100 | 1024.0 |
| 20260507040551 | 75 | 11 | 3.0 | 5.0 | 0.00 | 0.00 | 0.00 | 100 | 1023.8 |
| 20260507040056 | 75 | 59 | 2.0 | 5.0 | 0.00 | 0.00 | 0.00 | 100 | 1023.8 |
| 20260507035549 | 75 | 43 | 1.0 | 5.0 | 0.00 | 0.00 | 0.00 | 100 | 1023.7 |
| 20260507035051 | 75 | 57 | 2.0 | 5.0 | 0.00 | 0.00 | 0.00 | 100 | 1023.6 |
| 20260507034600 | 75 | 0 | 1.0 | 5.0 | 0.00 | 0.00 | 0.00 | 100 | 1023.5 |
| 20260507034051 | 75 | 59 | 0.0 | 8.0 | 0.00 | 0.00 | 0.00 | 100 | 1023.6 |
| 20260507033548 | 75 | 0 | 2.0 | 8.0 | 0.00 | 0.00 | 0.00 | 100 | 1023.5 |
| 20260507033057 | 75 | 42 | 3.0 | 8.0 | 0.00 | 0.00 | 0.00 | 100 | 1023.4 |
| 20260507032550 | 75 | 57 | 1.0 | 6.0 | 0.00 | 0.00 | 0.00 | 100 | 1023.3 |
| 20260507032051 | 75 | 78 | 1.0 | 6.0 | 0.00 | 0.00 | 0.00 | 100 | 1023.4 |
| 20260507031555 | 75 | 0 | 1.0 | 8.0 | 0.00 | 0.00 | 0.00 | 100 | 1023.2 |
| 20260507031051 | 76 | 74 | 3.0 | 8.0 | 0.00 | 0.00 | 0.00 | 100 | 1023.4 |
| 20260507030548 | 76 | 35 | 4.0 | 8.0 | 0.00 | 0.00 | 0.00 | 100 | 1023.2 |
| 20260507030105 | 76 | 360 | 3.0 | 8.0 | 0.00 | 0.00 | 0.00 | 100 | 1023.1 |
| 20260507025550 | 77 | 58 | 2.0 | 9.0 | 0.00 | 0.00 | 0.00 | 100 | 1023.2 |
| 20260507025048 | 76 | 360 | 4.0 | 9.0 | 0.00 | 0.00 | 0.00 | 100 | 1023.1 |
| 20260507024559 | 76 | 36 | 2.0 | 9.0 | 0.00 | 0.00 | 0.00 | 100 | 1023.2 |
| 20260507024049 | 76 | 338 | 2.0 | 8.0 | 0.00 | 0.00 | 0.00 | 100 | 1023.1 |
| 20260507023554 | 77 | 59 | 4.0 | 10.0 | 0.00 | 0.00 | 0.00 | 100 | 1023.0 |
| 20260507023150 | 77 | 13 | 3.0 | 10.0 | 0.00 | 0.00 | 0.00 | 100 | 1023.2 |
| 20260507022548 | 76 | 91 | 1.0 | 7.0 | 0.00 | 0.00 | 0.00 | 100 | 1023.1 |
| 20260507022051 | 76 | 96 | 3.0 | 9.0 | 0.00 | 0.00 | 0.00 | 100 | 1023.1 |
| 20260507021622 | 77 | 32 | 3.0 | 10.0 | 0.00 | 0.00 | 0.00 | 100 | 1023.1 |
| 20260507021050 | 77 | 23 | 4.0 | 10.0 | 0.00 | 0.00 | 0.00 | 100 | 1023.1 |
| 20260507020551 | 77 | 5 | 3.0 | 9.0 | 0.00 | 0.00 | 0.00 | 100 | 1023.1 |
| 20260507020112 | 77 | 34 | 4.0 | 9.0 | 0.00 | 0.00 | 0.00 | 100 | 1023.2 |
| 20260507015554 | 77 | 346 | 4.0 | 9.0 | 0.00 | 0.00 | 0.00 | 100 | 1023.2 |
| 20260507015048 | 78 | 37 | 5.0 | 9.0 | 0.00 | 0.00 | 0.00 | 100 | 1023.2 |
| 20260507014620 | 78 | 22 | 4.0 | 9.0 | 0.00 | 0.00 | 0.00 | 100 | 1023.2 |
| 20260507014049 | 78 | 33 | 4.0 | 9.0 | 0.00 | 0.00 | 0.00 | 100 | 1023.4 |
| 20260507013550 | 78 | 9 | 3.0 | 9.0 | 0.00 | 0.00 | 0.00 | 100 | 1023.4 |
| 20260507013053 | 78 | 352 | 5.0 | 9.0 | 0.00 | 0.00 | 0.00 | 100 | 1023.3 |
| 20260507012549 | 78 | 22 | 4.0 | 11.0 | 0.00 | 0.00 | 0.00 | 100 | 1023.2 |
| 20260507012049 | 78 | 5 | 5.0 | 11.0 | 0.00 | 0.00 | 0.00 | 100 | 1023.4 |
| 20260507011558 | 78 | 50 | 5.0 | 10.0 | 0.00 | 0.00 | 0.00 | 100 | 1023.4 |
| 20260507011048 | 79 | 341 | 5.0 | 10.0 | 0.00 | 0.00 | 0.00 | 100 | 1023.3 |
| 20260507010548 | 78 | 5 | 5.0 | 10.0 | 0.00 | 0.00 | 0.00 | 100 | 1023.4 |
| 20260507010052 | 79 | 40 | 5.0 | 11.0 | 0.00 | 0.00 | 0.00 | 100 | 1023.4 |
| 20260507005551 | 80 | 348 | 7.0 | 11.0 | 0.00 | 0.00 | 0.00 | 100 | 1023.4 |
| 20260507005052 | 80 | 5 | 3.0 | 12.0 | 0.00 | 0.00 | 0.00 | 100 | 1023.4 |
| 20260507004555 | 80 | 49 | 3.0 | 12.0 | 0.00 | 0.00 | 0.00 | 100 | 1023.3 |
| 20260507004048 | 80 | 57 | 3.0 | 9.0 | 0.00 | 0.00 | 0.00 | 100 | 1023.4 |
| 20260507003553 | 81 | 33 | 4.0 | 9.0 | 0.00 | 0.00 | 0.00 | 100 | 1023.4 |
| 20260507003051 | 81 | 352 | 4.0 | 9.0 | 0.00 | 0.00 | 0.00 | 100 | 1023.4 |
| 20260507002551 | 81 | 11 | 3.0 | 9.0 | 0.00 | 0.00 | 0.00 | 100 | 1023.4 |
| 20260507002048 | 81 | 103 | 4.0 | 9.0 | 0.00 | 0.00 | 0.00 | 100 | 1023.5 |
| 20260507001601 | 81 | 360 | 5.0 | 10.0 | 0.00 | 0.00 | 0.00 | 100 | 1023.6 |
| 20260507001048 | 80 | 55 | 3.0 | 10.0 | 0.00 | 0.00 | 0.00 | 100 | 1023.6 |
| 20260507000550 | 81 | 29 | 5.0 | 10.0 | 0.00 | 0.00 | 0.00 | 100 | 1023.7 |
| 20260507000121 | 79 | 27 | 4.0 | 9.0 | 0.00 | 0.00 | 0.00 | 100 | 1023.7 |
| 20260506235548 | 80 | 346 | 4.0 | 9.0 | 0.00 | 0.00 | 0.00 | 100 | 1023.7 |
| 20260506235050 | 80 | 24 | 3.0 | 9.0 | 0.00 | 0.00 | 0.00 | 100 | 1023.6 |
| 20260506234613 | 80 | 34 | 5.0 | 10.0 | 0.00 | 0.00 | 0.00 | 100 | 1023.7 |
| 20260506234051 | 80 | 67 | 5.0 | 10.0 | 0.00 | 0.00 | 0.00 | 100 | 1023.7 |
| 20260506233550 | 82 | 17 | 4.0 | 11.0 | 0.00 | 0.00 | 0.00 | 100 | 1023.7 |
| 20260506233052 | 82 | 37 | 4.0 | 11.0 | 0.00 | 0.00 | 0.00 | 100 | 1023.8 |
| 20260506232548 | 82 | 19 | 6.0 | 11.0 | 0.00 | 0.00 | 0.00 | 100 | 1023.8 |
| 20260506232050 | 83 | 48 | 5.0 | 13.0 | 0.00 | 0.00 | 0.00 | 100 | 1023.9 |
| 20260506231555 | 83 | 352 | 5.0 | 13.0 | 0.00 | 0.00 | 0.00 | 100 | 1023.9 |
| 20260506231050 | 83 | 32 | 6.0 | 13.0 | 0.00 | 0.00 | 0.00 | 100 | 1023.8 |
| 20260506230549 | 83 | 22 | 6.0 | 11.0 | 0.00 | 0.00 | 0.00 | 100 | 1023.9 |
| 20260506225550 | 83 | 14 | 6.0 | 12.0 | 0.00 | 0.00 | 0.00 | 100 | 1023.8 |
| 20260506225050 | 83 | 5 | 4.0 | 12.0 | 0.00 | 0.00 | 0.00 | 100 | 1023.9 |
| 20260506224555 | 84 | 351 | 5.0 | 10.0 | 0.00 | 0.00 | 0.00 | 100 | 1023.9 |
| 20260506224050 | 83 | 47 | 2.0 | 7.0 | 0.00 | 0.00 | 0.00 | 100 | 1024.0 |
| 20260506223550 | 82 | 53 | 2.0 | 7.0 | 0.00 | 0.00 | 0.00 | 100 | 1024.0 |
| 20260506223052 | 81 | 65 | 3.0 | 10.0 | 0.00 | 0.00 | 0.00 | 100 | 1024.0 |
| 20260506222554 | 81 | 61 | 5.0 | 10.0 | 0.00 | 0.00 | 0.00 | 100 | 1024.0 |
| 20260506222051 | 81 | 49 | 3.0 | 9.0 | 0.00 | 0.00 | 0.00 | 100 | 1024.0 |
| 20260506221604 | 82 | 23 | 3.0 | 11.0 | 0.00 | 0.00 | 0.00 | 100 | 1024.1 |
| 20260506221050 | 81 | 350 | 4.0 | 11.0 | 0.00 | 0.00 | 0.00 | 100 | 1024.0 |
| 20260506220550 | 82 | 22 | 2.0 | 9.0 | 0.00 | 0.00 | 0.00 | 100 | 1024.2 |
| 20260506220056 | 82 | 347 | 2.0 | 10.0 | 0.00 | 0.00 | 0.00 | 100 | 1024.3 |
| 20260506215550 | 82 | 351 | 3.0 | 10.0 | 0.00 | 0.00 | 0.00 | 100 | 1024.5 |
| 20260506215051 | 81 | 5 | 4.0 | 8.0 | 0.00 | 0.00 | 0.00 | 100 | 1024.6 |
| 20260506214605 | 81 | 47 | 4.0 | 8.0 | 0.00 | 0.00 | 0.00 | 100 | 1024.8 |
| 20260506214050 | 81 | 28 | 4.0 | 8.0 | 0.00 | 0.00 | 0.00 | 100 | 1024.8 |
| 20260506213552 | 81 | 0 | 2.0 | 7.0 | 0.00 | 0.00 | 0.00 | 100 | 1024.8 |
| 20260506213058 | 81 | 77 | 2.0 | 8.0 | 0.00 | 0.00 | 0.00 | 100 | 1024.9 |
| 20260506212550 | 81 | 34 | 3.0 | 8.0 | 0.00 | 0.00 | 0.00 | 100 | 1024.9 |
| 20260506212048 | 81 | 339 | 3.0 | 8.0 | 0.00 | 0.00 | 0.00 | 100 | 1024.8 |
| 20260506211558 | 80 | 13 | 2.0 | 9.0 | 0.00 | 0.00 | 0.00 | 100 | 1024.8 |
| 20260506211051 | 80 | 28 | 4.0 | 9.0 | 0.00 | 0.00 | 0.00 | 100 | 1025.0 |
| 20260506210550 | 79 | 42 | 2.0 | 9.0 | 0.00 | 0.00 | 0.00 | 100 | 1025.0 |
| 20260506210057 | 79 | 39 | 4.0 | 10.0 | 0.00 | 0.00 | 0.00 | 100 | 1025.1 |
| 20260506205549 | 79 | 32 | 6.0 | 10.0 | 0.00 | 0.00 | 0.00 | 100 | 1025.1 |
| 20260506205049 | 79 | 355 | 4.0 | 10.0 | 0.00 | 0.00 | 0.00 | 100 | 1025.1 |
| 20260506204556 | 79 | 36 | 4.0 | 11.0 | 0.00 | 0.00 | 0.00 | 100 | 1025.2 |
| 20260506204050 | 79 | 36 | 4.0 | 11.0 | 0.00 | 0.00 | 0.00 | 100 | 1025.1 |
| 20260506203550 | 79 | 347 | 2.0 | 9.0 | 0.00 | 0.00 | 0.00 | 100 | 1025.2 |
| 20260506203059 | 78 | 40 | 3.0 | 9.0 | 0.00 | 0.00 | 0.00 | 100 | 1025.2 |
| 20260506202549 | 78 | 56 | 3.0 | 9.0 | 0.00 | 0.00 | 0.00 | 100 | 1025.1 |
| 20260506202052 | 79 | 25 | 4.0 | 9.0 | 0.00 | 0.00 | 0.00 | 100 | 1025.0 |
| 20260506201551 | 79 | 28 | 4.0 | 9.0 | 0.00 | 0.00 | 0.00 | 100 | 1025.0 |
| 20260506201050 | 79 | 74 | 3.0 | 8.0 | 0.00 | 0.00 | 0.00 | 100 | 1024.9 |
| 20260506200550 | 79 | 58 | 4.0 | 9.0 | 0.00 | 0.00 | 0.00 | 100 | 1024.9 |
| 20260506200054 | 79 | 23 | 4.0 | 9.0 | 0.00 | 0.00 | 0.00 | 100 | 1024.9 |
| 20260506195550 | 79 | 46 | 5.0 | 9.0 | 0.00 | 0.00 | 0.00 | 100 | 1024.9 |
| 20260506195050 | 79 | 15 | 3.0 | 7.0 | 0.00 | 0.00 | 0.00 | 100 | 1024.9 |
| 20260506194556 | 79 | 55 | 3.0 | 5.0 | 0.00 | 0.00 | 0.00 | 100 | 1024.9 |
| 20260506194050 | 78 | 52 | 2.0 | 8.0 | 0.00 | 0.00 | 0.00 | 100 | 1025.0 |
| 20260506193550 | 78 | 40 | 2.0 | 8.0 | 0.00 | 0.00 | 0.00 | 100 | 1025.2 |
| 20260506193058 | 79 | 53 | 3.0 | 7.0 | 0.00 | 0.00 | 0.00 | 100 | 1025.2 |
| 20260506192550 | 78 | 17 | 2.0 | 6.0 | 0.00 | 0.00 | 0.00 | 100 | 1025.2 |
| 20260506192050 | 78 | 42 | 3.0 | 5.0 | 0.00 | 0.00 | 0.00 | 100 | 1025.2 |
| 20260506191604 | 78 | 0 | 0.0 | 7.0 | 0.00 | 0.00 | 0.00 | 100 | 1025.1 |
| 20260506191053 | 78 | 0 | 3.0 | 7.0 | 0.00 | 0.00 | 0.00 | 100 | 1025.1 |
| 20260506190550 | 78 | 30 | 2.0 | 5.0 | 0.00 | 0.00 | 0.00 | 100 | 1025.2 |
| 20260506190054 | 78 | 36 | 0.0 | 4.0 | 0.00 | 0.00 | 0.00 | 100 | 1025.2 |
| 20260506185552 | 78 | 0 | 0.0 | 0.0 | 0.00 | 0.00 | 0.00 | 100 | 1025.4 |
| 20260506185050 | 78 | 0 | 0.0 | 0.0 | 0.00 | 0.00 | 0.00 | 100 | 1025.4 |
| 20260506184558 | 78 | 0 | 0.0 | 0.0 | 0.00 | 0.00 | 0.00 | 100 | 1025.5 |
| 20260506184052 | 77 | 0 | 0.0 | 0.0 | 0.00 | 0.00 | 0.00 | 100 | 1025.4 |
| 20260506183552 | 77 | 0 | 0.0 | 0.0 | 0.00 | 0.00 | 0.00 | 100 | 1025.3 |
| 20260506183104 | 77 | 0 | 0.0 | 0.0 | 0.00 | 0.00 | 0.00 | 100 | 1025.2 |
| 20260506182551 | 77 | 0 | 0.0 | 0.0 | 0.00 | 0.00 | 0.00 | 100 | 1025.2 |
| 20260506182051 | 77 | 0 | 0.0 | 0.0 | 0.00 | 0.00 | 0.00 | 100 | 1025.1 |
| 20260506181603 | 76 | 0 | 0.0 | 0.0 | 0.00 | 0.00 | 0.00 | 100 | 1025.0 |
| 20260506181052 | 76 | 0 | 0.0 | 0.0 | 0.00 | 0.00 | 0.00 | 100 | 1025.0 |
| 20260506180554 | 75 | 0 | 0.0 | 0.0 | 0.00 | 0.00 | 0.00 | 100 | 1024.8 |
| 20260506180054 | 75 | 0 | 0.0 | 0.0 | 0.00 | 0.00 | 0.00 | 100 | 1024.7 |
| 20260506175550 | 74 | 0 | 0.0 | 0.0 | 0.00 | 0.00 | 0.00 | 100 | 1024.6 |
| 20260506175055 | 73 | 0 | 0.0 | 0.0 | 0.00 | 0.00 | 0.00 | 100 | 1024.6 |
| 20260506174555 | 72 | 0 | 0.0 | 0.0 | 0.00 | 0.00 | 0.00 | 100 | 1024.5 |
| 20260506174053 | 70 | 0 | 0.0 | 0.0 | 0.00 | 0.00 | 0.00 | 100 | 1024.5 |
| 20260506173552 | 70 | 0 | 0.0 | 0.0 | 0.00 | 0.00 | 0.00 | 100 | 1024.6 |
| 20260506173116 | 69 | 0 | 0.0 | 0.0 | 0.00 | 0.00 | 0.00 | 100 | 1024.5 |
| 20260506172550 | 68 | 0 | 0.0 | 0.0 | 0.00 | 0.00 | 0.00 | 100 | 1024.4 |
| 20260506172053 | 68 | 0 | 0.0 | 0.0 | 0.00 | 0.00 | 0.00 | 100 | 1024.4 |
| 20260506171556 | 67 | 0 | 0.0 | 1.0 | 0.00 | 0.00 | 0.00 | 100 | 1024.4 |
| 20260506171048 | 67 | 0 | 0.0 | 2.0 | 0.00 | 0.00 | 0.00 | 100 | 1024.2 |
| 20260506170550 | 66 | 0 | 0.0 | 2.0 | 0.00 | 0.00 | 0.00 | 100 | 1024.2 |
| 20260506170106 | 66 | 190 | 1.0 | 2.0 | 0.00 | 0.00 | 0.00 | 100 | 1024.1 |
| 20260506165549 | 66 | 190 | 1.0 | 2.0 | 0.00 | 0.00 | 0.00 | 100 | 1024.2 |
| 20260506165050 | 66 | 190 | 1.0 | 2.0 | 0.00 | 0.00 | 0.00 | 100 | 1024.1 |
| 20260506164549 | 65 | 190 | 1.0 | 2.0 | 0.00 | 0.00 | 0.00 | 100 | 1024.1 |
| 20260506164049 | 65 | 190 | 1.0 | 2.0 | 0.00 | 0.00 | 0.00 | 100 | 1024.0 |
| 20260506163547 | 65 | 190 | 1.0 | 2.0 | 0.00 | 0.00 | 0.00 | 100 | 1023.9 |
| 20260506163057 | 65 | 190 | 0.0 | 2.0 | 0.00 | 0.00 | 0.00 | 100 | 1023.9 |
| 20260506162549 | 65 | 0 | 1.0 | 2.0 | 0.00 | 0.00 | 0.00 | 100 | 1023.8 |
| 20260506162049 | 65 | 190 | 1.0 | 2.0 | 0.00 | 0.00 | 0.00 | 100 | 1023.7 |
| 20260506161548 | 65 | 190 | 1.0 | 2.0 | 0.00 | 0.00 | 0.00 | 100 | 1023.5 |
| 20260506161049 | 65 | 190 | 1.0 | 2.0 | 0.00 | 0.00 | 0.00 | 100 | 1023.5 |
| 20260506160549 | 65 | 190 | 1.0 | 3.0 | 0.00 | 0.00 | 0.00 | 100 | 1023.4 |
| 20260506160052 | 65 | 190 | 1.0 | 3.0 | 0.00 | 0.00 | 0.00 | 100 | 1023.5 |
| 20260506155553 | 65 | 190 | 1.0 | 3.0 | 0.00 | 0.00 | 0.00 | 100 | 1023.5 |
| 20260506155050 | 65 | 190 | 1.0 | 3.0 | 0.00 | 0.00 | 0.00 | 100 | 1023.3 |
| 20260506154609 | 65 | 190 | 1.0 | 3.0 | 0.00 | 0.00 | 0.00 | 100 | 1023.3 |
| 20260506154048 | 65 | 190 | 2.0 | 3.0 | 0.00 | 0.00 | 0.00 | 100 | 1023.2 |
| 20260506153549 | 65 | 190 | 1.0 | 3.0 | 0.00 | 0.00 | 0.00 | 100 | 1023.2 |
| 20260506153054 | 65 | 190 | 1.0 | 3.0 | 0.00 | 0.00 | 0.00 | 100 | 1023.1 |
| 20260506152550 | 65 | 190 | 2.0 | 3.0 | 0.00 | 0.00 | 0.00 | 100 | 1023.1 |
| 20260506152047 | 65 | 189 | 2.0 | 3.0 | 0.00 | 0.00 | 0.00 | 100 | 1023.0 |
| 20260506151559 | 65 | 190 | 2.0 | 3.0 | 0.00 | 0.00 | 0.00 | 100 | 1023.1 |
| 20260506151047 | 65 | 190 | 1.0 | 4.0 | 0.00 | 0.00 | 0.00 | 100 | 1023.0 |
| 20260506150549 | 65 | 190 | 1.0 | 4.0 | 0.00 | 0.00 | 0.00 | 100 | 1023.0 |
| 20260506150059 | 65 | 189 | 2.0 | 4.0 | 0.00 | 0.00 | 0.00 | 100 | 1023.0 |
| 20260506145547 | 66 | 189 | 2.0 | 4.0 | 0.00 | 0.00 | 0.00 | 100 | 1022.8 |
| 20260506145049 | 66 | 189 | 2.0 | 4.0 | 0.00 | 0.00 | 0.00 | 100 | 1022.7 |
| 20260506144603 | 66 | 189 | 2.0 | 4.0 | 0.00 | 0.00 | 0.00 | 100 | 1022.6 |
| 20260506144052 | 66 | 189 | 2.0 | 3.0 | 0.00 | 0.00 | 0.00 | 100 | 1022.6 |
| 20260506143549 | 66 | 189 | 2.0 | 3.0 | 0.00 | 0.00 | 0.00 | 100 | 1022.5 |
| 20260506143055 | 66 | 189 | 2.0 | 4.0 | 0.00 | 0.00 | 0.00 | 100 | 1022.6 |
| 20260506142549 | 66 | 189 | 1.0 | 4.0 | 0.00 | 0.00 | 0.00 | 100 | 1022.7 |
| 20260506142048 | 66 | 189 | 2.0 | 4.0 | 0.00 | 0.00 | 0.00 | 100 | 1022.6 |
| 20260506141600 | 66 | 197 | 0.0 | 2.0 | 0.00 | 0.00 | 0.00 | 100 | 1022.7 |
| 20260506141053 | 66 | 0 | 0.0 | 2.0 | 0.00 | 0.00 | 0.00 | 100 | 1022.6 |
| 20260506140551 | 66 | 0 | 1.0 | 2.0 | 0.00 | 0.00 | 0.00 | 100 | 1022.6 |
| 20260506140057 | 66 | 197 | 1.0 | 2.0 | 0.00 | 0.00 | 0.00 | 100 | 1022.5 |
| 20260506135549 | 66 | 197 | 1.0 | 3.0 | 0.00 | 0.00 | 0.00 | 100 | 1022.6 |
| 20260506135049 | 66 | 197 | 1.0 | 3.0 | 0.00 | 0.00 | 0.00 | 100 | 1022.6 |
| 20260506134556 | 66 | 197 | 1.0 | 2.0 | 0.00 | 0.00 | 0.00 | 100 | 1022.6 |
| 20260506134052 | 66 | 197 | 0.0 | 1.0 | 0.00 | 0.00 | 0.00 | 100 | 1022.6 |
| 20260506133551 | 66 | 0 | 0.0 | 0.0 | 0.00 | 0.00 | 0.00 | 100 | 1022.7 |
| 20260506133128 | 66 | 0 | 0.0 | 0.0 | 0.00 | 0.00 | 0.00 | 100 | 1022.7 |
| 20260506132549 | 66 | 0 | 0.0 | 0.0 | 0.00 | 0.00 | 0.00 | 100 | 1022.8 |
| 20260506132052 | 66 | 0 | 0.0 | 0.0 | 0.00 | 0.00 | 0.00 | 100 | 1022.8 |
| 20260506131559 | 66 | 0 | 0.0 | 0.0 | 0.00 | 0.00 | 0.00 | 100 | 1022.7 |
| 20260506131049 | 67 | 0 | 0.0 | 0.0 | 0.00 | 0.00 | 0.00 | 100 | 1022.8 |
| 20260506130549 | 67 | 0 | 0.0 | 0.0 | 0.00 | 0.00 | 0.00 | 100 | 1022.9 |
| 20260506130121 | 67 | 0 | 0.0 | 0.0 | 0.00 | 0.00 | 0.00 | 100 | 1022.9 |
| 20260506125549 | 67 | 0 | 0.0 | 0.0 | 0.00 | 0.00 | 0.00 | 100 | 1023.0 |
| 20260506125048 | 67 | 0 | 0.0 | 0.0 | 0.00 | 0.00 | 0.00 | 100 | 1022.9 |
| 20260506124600 | 67 | 0 | 0.0 | 0.0 | 0.00 | 0.00 | 0.00 | 100 | 1022.8 |
| 20260506124052 | 67 | 0 | 0.0 | 0.0 | 0.00 | 0.00 | 0.00 | 100 | 1022.8 |
| 20260506123549 | 67 | 0 | 0.0 | 0.0 | 0.00 | 0.00 | 0.00 | 100 | 1022.8 |
| 20260506123100 | 67 | 0 | 0.0 | 0.0 | 0.00 | 0.00 | 0.00 | 100 | 1022.7 |
| 20260506122549 | 67 | 0 | 0.0 | 0.0 | 0.00 | 0.00 | 0.00 | 100 | 1022.7 |
| 20260506122051 | 67 | 0 | 0.0 | 0.0 | 0.00 | 0.00 | 0.00 | 100 | 1022.6 |
| 20260506121603 | 67 | 0 | 0.0 | 0.0 | 0.00 | 0.00 | 0.00 | 100 | 1022.8 |
| 20260506121051 | 67 | 0 | 0.0 | 3.0 | 0.00 | 0.00 | 0.00 | 100 | 1022.9 |
| 20260506120550 | 67 | 0 | 0.0 | 3.0 | 0.00 | 0.00 | 0.00 | 100 | 1023.0 |
| 20260506115554 | 67 | 203 | 1.0 | 2.0 | 0.00 | 0.00 | 0.00 | 100 | 1023.1 |
| 20260506115048 | 67 | 203 | 1.0 | 2.0 | 0.00 | 0.00 | 0.00 | 100 | 1023.1 |
| 20260506114604 | 67 | 203 | 0.0 | 3.0 | 0.00 | 0.00 | 0.00 | 100 | 1023.2 |